Terug naar catalogus

STARLINK-36849

ActiefCommunicatieSSO
NORAD 68304·PAYLOAD·🇺🇸 United States

Gelanceerd Mar 20, 2026 vanaf Vandenberg Space Force Base

Loading…

Volgende Passages (komende 24 uur)

TLE

VersSource: CelesTrak SupGP

Epoch: Sep 14, 2026, 22:27 UTC

1 68304C 26057L   26257.93590278 -.00038895  00000+0 -12070-2 0  2579
2 68304  97.2854  23.3492 0001263  92.8141  16.8411 15.33470104    18

Volg STARLINK-36849 in realtime met AllMySat

Download on the App Store